QPF
0.01 0.01 0.01 0.01 0.02 0.02 0.02 0.03 0.02 0.03 0.05 0.06 0.06 0.06 0.06 0.08 0.10 0.15 0.16 0.13 0.12 0.11 0.11 0.11 0.10 0.10 0.11 0.12 0.14 0.14 0.14 0.14 0.13 0.16 0.18 0.18 0.17 0.15 0.14 0.11 0.10 0.10 0.09
0.01 0.01 0.00 0.01 0.02 0.02 0.02 0.02 0.02 0.02 0.03 0.04 0.05 0.06 0.06 0.09 0.12 0.14 0.16 0.15 0.13 0.12 0.13 0.13 0.10 0.10 0.12 0.15 0.18 0.19 0.17 0.16 0.15 0.16 0.18 0.18 0.19 0.17 0.16 0.16 0.15 0.13 0.13
0.01 0.01 0.01 0.01 0.01 0.02 0.02 0.02 0.02 0.02 0.02 0.02 0.04 0.05 0.07 0.07 0.08 0.09 0.11 0.14 0.14 0.14 0.15 0.13 0.12 0.11 0.11 0.13 0.16 0.19 0.20 0.19 0.18 0.18 0.19 0.19 0.18 0.16 0.18 0.16 0.15 0.15 0.14
0.01 0.01 0.01 0.01 0.01 0.01 0.01 0.02 0.02 0.02 0.01 0.02 0.02 0.03 0.04 0.05 0.06 0.06 0.07 0.10 0.13 0.14 0.12 0.11 0.11 0.10 0.09 0.11 0.13 0.17 0.19 0.18 0.17 0.17 0.16 0.16 0.16 0.15 0.16 0.17 0.16 0.16 0.14
0.01 0.02 0.02 0.01 0.02 0.02 0.02 0.02 0.02 0.03 0.03 0.04 0.06 0.05 0.06 0.08 0.08 0.07 0.06 0.06 0.08 0.11 0.11 0.10 0.11 0.13 0.11 0.11 0.11 0.14 0.18 0.18 0.18 0.19 0.18 0.16 0.15 0.14 0.13 0.16 0.17 0.17 0.14
0.01 0.01 0.01 0.01 0.01 0.02 0.03 0.03 0.03 0.03 0.04 0.05 0.08 0.08 0.11 0.12 0.08 0.07 0.07 0.06 0.05 0.06 0.07 0.08 0.08 0.10 0.11 0.12 0.13 0.11 0.14 0.17 0.18 0.19 0.20 0.17 0.17 0.17 0.15 0.14 0.15 0.15 0.15
0.04 0.03 0.02 0.01 0.01 0.01 0.02 0.03 0.03 0.05 0.07 0.07 0.05 0.06 0.09 0.10 0.07 0.06 0.05 0.05 0.04 0.04 0.05 0.05 0.06 0.09 0.11 0.13 0.14 0.13 0.12 0.16 0.19 0.19 0.20 0.20 0.19 0.18 0.18 0.18 0.19 0.17 0.16
0.07 0.05 0.03 0.01 0.01 0.01 0.01 0.01 0.02 0.04 0.05 0.06 0.04 0.04 0.04 0.05 0.04 0.04 0.04 0.04 0.03 0.03 0.03 0.03 0.05 0.07 0.11 0.14 0.15 0.15 0.14 0.15 0.18 0.19 0.20 0.22 0.22 0.20 0.20 0.19 0.20 0.23 0.22
0.07 0.05 0.03 0.01 0.02 0.02 0.02 0.02 0.02 0.02 0.02 0.02 0.02 0.01 0.02 0.03 0.04 0.03 0.02 0.02 0.02 0.02 0.03 0.03 0.04 0.04 0.08 0.11 0.13 0.14 0.13 0.13 0.14 0.15 0.17 0.18 0.20 0.21 0.22 0.21 0.20 0.22 0.23
0.02 0.02 0.01 0.01 0.02 0.03 0.03 0.03 0.02 0.02 0.02 0.01 0.02 0.02 0.02 0.02 0.04 0.04 0.03 0.02 0.02 0.03 0.04 0.05 0.05 0.05 0.05 0.06 0.06 0.08 0.09 0.10 0.10 0.11 0.12 0.12 0.14 0.16 0.18 0.20 0.20 0.18 0.18
0.01 0.01 0.00 0.02 0.03 0.02 0.02 0.03 0.03 0.02 0.02 0.01 0.02 0.02 0.02 0.02 0.02 0.03 0.03 0.02 0.02 0.03 0.04 0.04 0.05 0.06 0.05 0.04 0.04 0.04 0.04 0.05 0.06 0.07 0.09 0.11 0.12 0.13 0.14 0.15 0.16 0.15 0.13
0.01 0.01 0.00 0.01 0.02 0.02 0.03 0.03 0.03 0.02 0.01 0.01 0.01 0.02 0.02 0.02 0.03 0.03 0.03 0.03 0.03 0.03 0.04 0.06 0.05 0.05 0.04 0.04 0.03 0.03 0.03 0.04 0.05 0.05 0.05 0.07 0.09 0.09 0.10 0.11 0.11 0.11 0.11
0.01 0.01 0.00 0.00 0.01 0.02 0.03 0.02 0.02 0.01 0.01 0.01 0.01 0.02 0.02 0.02 0.03 0.03 0.04 0.05 0.04 0.04 0.04 0.04 0.06 0.05 0.04 0.04 0.03 0.03 0.03 0.03 0.05 0.05 0.05 0.05 0.05 0.06 0.06 0.07 0.07 0.08 0.08
0.01 0.01 0.01 0.00 0.00 0.01 0.01 0.02 0.01 0.02 0.02 0.01 0.01 0.02 0.02 0.02 0.03 0.04 0.05 0.05 0.04 0.04 0.03 0.03 0.04 0.05 0.04 0.03 0.03 0.02 0.03 0.04 0.05 0.05 0.04 0.04 0.04 0.04 0.05 0.05 0.05 0.05 0.06
0.00 0.01 0.01 0.00 0.01 0.01 0.01 0.01 0.02 0.01 0.01 0.02 0.02 0.02 0.03 0.03 0.03 0.03 0.04 0.03 0.03 0.02 0.02 0.02 0.02 0.03 0.04 0.03 0.03 0.03 0.02 0.03 0.05 0.05 0.04 0.03 0.04 0.04 0.04 0.04 0.04 0.04 0.06
0.00 0.01 0.01 0.01 0.01 0.02 0.01 0.01 0.02 0.02 0.02 0.03 0.03 0.04 0.04 0.04 0.05 0.04 0.03 0.03 0.03 0.02 0.02 0.02 0.02 0.02 0.02 0.03 0.04 0.03 0.02 0.02 0.03 0.04 0.03 0.03 0.02 0.03 0.03 0.03 0.03 0.03 0.04
0.01 0.01 0.01 0.01 0.01 0.01 0.02 0.01 0.02 0.02 0.03 0.03 0.03 0.03 0.03 0.04 0.04 0.04 0.03 0.02 0.02 0.03 0.03 0.03 0.04 0.04 0.03 0.03 0.03 0.03 0.03 0.02 0.02 0.03 0.03 0.02 0.02 0.01 0.01 0.01 0.02 0.02 0.02
0.02 0.02 0.03 0.02 0.02 0.02 0.02 0.02 0.02 0.02 0.02 0.04 0.04 0.03 0.03 0.03 0.04 0.04 0.04 0.03 0.03 0.04 0.04 0.04 0.04 0.05 0.03 0.03 0.02 0.03 0.03 0.03 0.02 0.02 0.02 0.02 0.02 0.01 0.01 0.01 0.02 0.01 0.01
0.03 0.03 0.04 0.03 0.03 0.03 0.03 0.03 0.04 0.03 0.02 0.02 0.04 0.03 0.02 0.03 0.03 0.04 0.04 0.04 0.05 0.08 0.06 0.04 0.04 0.03 0.03 0.03 0.02 0.02 0.03 0.03 0.02 0.02 0.02 0.01 0.01 0.01 0.01 0.01 0.02 0.02 0.01
0.02 0.02 0.03 0.03 0.02 0.03 0.03 0.03 0.06 0.05 0.04 0.03 0.03 0.03 0.03 0.04 0.04 0.05 0.05 0.04 0.05 0.09 0.05 0.03 0.02 0.03 0.02 0.02 0.02 0.02 0.03 0.03 0.03 0.02 0.01 0.01 0.00 0.00 0.00 0.02 0.02 0.02 0.02
0.02 0.02 0.03 0.03 0.03 0.03 0.03 0.03 0.04 0.04 0.03 0.02 0.03 0.04 0.04 0.04 0.04 0.06 0.05 0.04 0.05 0.05 0.03 0.02 0.02 0.01 0.01 0.01 0.01 0.01 0.02 0.03 0.03 0.02 0.01 0.00 0.00 0.00 0.00 0.00 0.01 0.01 0.01
0.02 0.02 0.03 0.03 0.03 0.03 0.03 0.04 0.04 0.04 0.03 0.03 0.03 0.03 0.03 0.03 0.03 0.04 0.03 0.03 0.06 0.05 0.04 0.03 0.02 0.01 0.01 0.01 0.00 0.01 0.01 0.02 0.03 0.02 0.01 0.00 0.00 0.00 0.00 0.00 0.00 0.00 0.01
0.01 0.02 0.02 0.02 0.02 0.03 0.04 0.04 0.04 0.03 0.02 0.03 0.03 0.02 0.02 0.03 0.04 0.04 0.03 0.02 0.04 0.05 0.05 0.03 0.02 0.01 0.01 0.00 0.00 0.00 0.00 0.01 0.01 0.01 0.00 0.00 0.00 0.00 0.00 0.00 0.00 0.01 0.01
0.02 0.02 0.02 0.03 0.03 0.03 0.03 0.03 0.02 0.02 0.02 0.03 0.03 0.02 0.02 0.03 0.03 0.02 0.02 0.03 0.03 0.03 0.05 0.04 0.03 0.02 0.01 0.00 0.00 0.00 0.00 0.00 0.00 0.01 0.00 0.00 0.00 0.00 0.00 0.00 0.01 0.01 0.01
0.01 0.02 0.02 0.02 0.02 0.02 0.02 0.02 0.02 0.02 0.02 0.03 0.02 0.02 0.02 0.02 0.02 0.02 0.02 0.01 0.02 0.02 0.03 0.03 0.02 0.01 0.01 0.00 0.00 0.00 0.00 0.00 0.00 0.01 0.01 0.00 0.01 0.01 0.01 0.01 0.01 0.01 0.00
0.01 0.02 0.02 0.02 0.01 0.02 0.02 0.02 0.02 0.01 0.01 0.01 0.01 0.01 0.01 0.01 0.01 0.01 0.00 0.00 0.01 0.01 0.01 0.01 0.00 0.00 0.00 0.00 0.00 0.00 0.00 0.00 0.00 0.00 0.00 0.01 0.01 0.01 0.01 0.01 0.01 0.00 0.01
MSLP
1018.95 1018.72 1018.46 1018.20 1017.96 1017.74 1017.53 1017.31 1017.06 1016.77 1016.44 1016.08 1015.73 1015.40 1015.15 1015.00 1014.96 1015.03 1015.18 1015.38 1015.59 1015.76 1015.89 1015.96 1016.00 1016.05 1016.16 1016.37 1016.70 1017.17 1017.76 1018.43 1019.13 1019.79 1020.38 1020.84 1021.18 1021.40 1021.53 1021.61 1021.69 1021.80 1021.99
1019.11 1018.92 1018.70 1018.48 1018.26 1018.05 1017.84 1017.62 1017.36 1017.05 1016.70 1016.31 1015.93 1015.57 1015.29 1015.11 1015.05 1015.10 1015.24 1015.44 1015.65 1015.82 1015.94 1016.00 1016.02 1016.03 1016.08 1016.21 1016.48 1016.88 1017.42 1018.06 1018.75 1019.44 1020.08 1020.63 1021.06 1021.38 1021.61 1021.78 1021.92 1022.09 1022.29
1019.04 1018.93 1018.78 1018.61 1018.43 1018.25 1018.05 1017.82 1017.55 1017.23 1016.87 1016.47 1016.08 1015.71 1015.42 1015.22 1015.15 1015.20 1015.34 1015.54 1015.75 1015.93 1016.05 1016.10 1016.09 1016.06 1016.05 1016.11 1016.28 1016.58 1017.03 1017.60 1018.25 1018.93 1019.60 1020.21 1020.75 1021.18 1021.54 1021.83 1022.08 1022.33 1022.59
1018.83 1018.83 1018.78 1018.68 1018.56 1018.41 1018.22 1018.00 1017.72 1017.40 1017.03 1016.63 1016.23 1015.87 1015.57 1015.38 1015.31 1015.35 1015.49 1015.68 1015.90 1016.09 1016.21 1016.26 1016.24 1016.18 1016.11 1016.09 1016.15 1016.35 1016.68 1017.14 1017.71 1018.36 1019.03 1019.68 1020.30 1020.85 1021.34 1021.76 1022.15 1022.51 1022.84
1018.59 1018.71 1018.77 1018.77 1018.71 1018.60 1018.43 1018.21 1017.93 1017.60 1017.23 1016.83 1016.44 1016.09 1015.80 1015.61 1015.53 1015.57 1015.70 1015.89 1016.10 1016.29 1016.43 1016.49 1016.46 1016.38 1016.27 1016.18 1016.16 1016.23 1016.44 1016.78 1017.25 1017.82 1018.46 1019.13 1019.80 1020.45 1021.06 1021.62 1022.13 1022.59 1023.03
1018.39 1018.65 1018.83 1018.93 1018.94 1018.86 1018.71 1018.50 1018.21 1017.88 1017.51 1017.12 1016.73 1016.39 1016.11 1015.91 1015.83 1015.85 1015.96 1016.14 1016.34 1016.54 1016.69 1016.76 1016.75 1016.67 1016.54 1016.41 1016.31 1016.29 1016.37 1016.59 1016.94 1017.42 1017.99 1018.64 1019.34 1020.05 1020.74 1021.40 1022.02 1022.58 1023.09
1018.29 1018.68 1018.98 1019.17 1019.24 1019.20 1019.07 1018.85 1018.56 1018.22 1017.85 1017.47 1017.10 1016.76 1016.49 1016.29 1016.19 1016.18 1016.27 1016.42 1016.61 1016.80 1016.96 1017.06 1017.09 1017.03 1016.91 1016.77 1016.62 1016.52 1016.51 1016.61 1016.84 1017.20 1017.69 1018.29 1018.97 1019.69 1020.43 1021.15 1021.83 1022.46 1023.02
1018.31 1018.81 1019.21 1019.47 1019.60 1019.59 1019.46 1019.24 1018.95 1018.61 1018.24 1017.87 1017.52 1017.19 1016.92 1016.72 1016.59 1016.55 1016.60 1016.72 1016.89 1017.08 1017.26 1017.39 1017.46 1017.45 1017.37 1017.23 1017.08 1016.93 1016.84 1016.84 1016.96 1017.21 1017.59 1018.11 1018.73 1019.42 1020.15 1020.89 1021.59 1022.25 1022.83
1018.43 1019.03 1019.50 1019.82 1019.97 1019.98 1019.85 1019.63 1019.33 1018.99 1018.65 1018.30 1017.97 1017.66 1017.39 1017.18 1017.04 1016.97 1016.98 1017.06 1017.20 1017.38 1017.57 1017.75 1017.87 1017.92 1017.89 1017.80 1017.65 1017.49 1017.35 1017.27 1017.28 1017.42 1017.70 1018.11 1018.64 1019.26 1019.94 1020.65 1021.33 1021.97 1022.53
1018.63 1019.29 1019.81 1020.16 1020.33 1020.33 1020.20 1019.97 1019.68 1019.36 1019.04 1018.72 1018.43 1018.15 1017.90 1017.69 1017.53 1017.43 1017.40 1017.45 1017.57 1017.74 1017.94 1018.15 1018.32 1018.44 1018.48 1018.44 1018.32 1018.17 1017.99 1017.85 1017.79 1017.82 1017.98 1018.28 1018.70 1019.23 1019.83 1020.46 1021.09 1021.68 1022.21
1018.87 1019.57 1020.11 1020.47 1020.63 1020.63 1020.49 1020.27 1020.00 1019.71 1019.42 1019.16 1018.91 1018.67 1018.46 1018.26 1018.10 1017.98 1017.92 1017.94 1018.03 1018.19 1018.40 1018.63 1018.85 1019.02 1019.12 1019.14 1019.06 1018.92 1018.73 1018.55 1018.41 1018.36 1018.42 1018.60 1018.91 1019.33 1019.83 1020.38 1020.93 1021.46 1021.93
1019.15 1019.86 1020.40 1020.75 1020.90 1020.89 1020.75 1020.54 1020.29 1020.05 1019.82 1019.62 1019.43 1019.25 1019.08 1018.91 1018.76 1018.63 1018.56 1018.55 1018.61 1018.76 1018.97 1019.21 1019.46 1019.67 1019.82 1019.87 1019.83 1019.70 1019.51 1019.30 1019.11 1018.99 1018.96 1019.04 1019.25 1019.57 1019.97 1020.43 1020.90 1021.36 1021.78
1019.45 1020.17 1020.70 1021.02 1021.15 1021.13 1021.00 1020.81 1020.60 1020.41 1020.26 1020.13 1020.01 1019.91 1019.79 1019.66 1019.52 1019.40 1019.31 1019.28 1019.33 1019.46 1019.65 1019.89 1020.15 1020.37 1020.54 1020.62 1020.59 1020.48 1020.29 1020.06 1019.84 1019.66 1019.57 1019.58 1019.71 1019.94 1020.26 1020.63 1021.03 1021.43 1021.80
1019.80 1020.51 1021.01 1021.31 1021.42 1021.39 1021.27 1021.11 1020.96 1020.83 1020.75 1020.70 1020.67 1020.63 1020.56 1020.48 1020.37 1020.26 1020.17 1020.12 1020.15 1020.24 1020.41 1020.64 1020.87 1021.09 1021.26 1021.34 1021.32 1021.21 1021.02 1020.79 1020.55 1020.35 1020.23 1020.19 1020.26 1020.43 1020.68 1021.00 1021.34 1021.69 1022.02
1020.19 1020.88 1021.35 1021.62 1021.72 1021.69 1021.59 1021.47 1021.37 1021.31 1021.30 1021.33 1021.36 1021.38 1021.37 1021.32 1021.24 1021.14 1021.05 1020.99 1021.00 1021.07 1021.20 1021.39 1021.59 1021.79 1021.93 1022.00 1021.98 1021.87 1021.69 1021.47 1021.24 1021.04 1020.91 1020.86 1020.90 1021.03 1021.24 1021.51 1021.81 1022.11 1022.42
1020.61 1021.26 1021.71 1021.95 1022.03 1022.02 1021.94 1021.87 1021.82 1021.83 1021.88 1021.96 1022.05 1022.11 1022.14 1022.12 1022.06 1021.97 1021.88 1021.82 1021.80 1021.84 1021.94 1022.08 1022.25 1022.40 1022.51 1022.56 1022.54 1022.44 1022.28 1022.08 1021.88 1021.71 1021.60 1021.56 1021.60 1021.72 1021.91 1022.14 1022.40 1022.67 1022.94
1021.03 1021.64 1022.04 1022.26 1022.35 1022.34 1022.30 1022.26 1022.26 1022.32 1022.41 1022.53 1022.66 1022.75 1022.80 1022.80 1022.75 1022.67 1022.58 1022.51 1022.48 1022.49 1022.56 1022.67 1022.79 1022.91 1022.99 1023.03 1023.00 1022.91 1022.78 1022.63 1022.48 1022.36 1022.30 1022.29 1022.35 1022.46 1022.63 1022.83 1023.05 1023.28 1023.51
1021.38 1021.94 1022.31 1022.51 1022.59 1022.61 1022.59 1022.60 1022.64 1022.73 1022.85 1022.99 1023.12 1023.22 1023.27 1023.27 1023.23 1023.16 1023.07 1023.01 1022.97 1022.98 1023.03 1023.12 1023.21 1023.30 1023.37 1023.39 1023.38 1023.32 1023.23 1023.13 1023.05 1022.99 1022.98 1023.02 1023.10 1023.22 1023.37 1023.54 1023.71 1023.89 1024.05
1021.61 1022.12 1022.46 1022.65 1022.74 1022.77 1022.79 1022.83 1022.90 1023.01 1023.14 1023.28 1023.40 1023.49 1023.53 1023.53 1023.49 1023.42 1023.36 1023.31 1023.29 1023.31 1023.36 1023.44 1023.53 1023.62 1023.68 1023.71 1023.71 1023.68 1023.64 1023.61 1023.59 1023.60 1023.64 1023.72 1023.82 1023.94 1024.07 1024.20 1024.31 1024.42 1024.51
1021.71 1022.16 1022.47 1022.65 1022.75 1022.81 1022.87 1022.93 1023.03 1023.15 1023.27 1023.40 1023.50 1023.57 1023.59 1023.58 1023.55 1023.50 1023.47 1023.45 1023.47 1023.52 1023.60 1023.71 1023.81 1023.90 1023.97 1024.02 1024.04 1024.05 1024.06 1024.07 1024.11 1024.17 1024.25 1024.35 1024.47 1024.58 1024.67 1024.74 1024.79 1024.82 1024.83
1021.65 1022.06 1022.34 1022.52 1022.65 1022.74 1022.83 1022.93 1023.04 1023.17 1023.28 1023.39 1023.46 1023.51 1023.51 1023.50 1023.48 1023.47 1023.47 1023.51 1023.59 1023.69 1023.83 1023.97 1024.10 1024.22 1024.31 1024.37 1024.41 1024.44 1024.48 1024.52 1024.59 1024.67 1024.78 1024.88 1024.99 1025.07 1025.12 1025.14 1025.11 1025.07 1025.00
1021.49 1021.85 1022.12 1022.32 1022.47 1022.60 1022.73 1022.86 1023.00 1023.12 1023.23 1023.31 1023.35 1023.38 1023.37 1023.37 1023.37 1023.39 1023.46 1023.56 1023.71 1023.89 1024.09 1024.28 1024.46 1024.60 1024.71 1024.79 1024.84 1024.87 1024.91 1024.95 1025.01 1025.09 1025.18 1025.27 1025.34 1025.38 1025.38 1025.34 1025.26 1025.15 1025.02
1021.28 1021.61 1021.88 1022.09 1022.28 1022.46 1022.63 1022.80 1022.95 1023.07 1023.17 1023.23 1023.25 1023.26 1023.25 1023.25 1023.28 1023.35 1023.48 1023.67 1023.89 1024.15 1024.42 1024.67 1024.89 1025.07 1025.19 1025.26 1025.30 1025.31 1025.31 1025.32 1025.35 1025.38 1025.43 1025.47 1025.49 1025.49 1025.44 1025.35 1025.23 1025.08 1024.91
1021.08 1021.40 1021.68 1021.93 1022.16 1022.38 1022.59 1022.79 1022.95 1023.08 1023.17 1023.21 1023.21 1023.20 1023.19 1023.20 1023.26 1023.39 1023.58 1023.83 1024.14 1024.47 1024.81 1025.11 1025.37 1025.57 1025.69 1025.75 1025.75 1025.72 1025.66 1025.61 1025.56 1025.52 1025.50 1025.48 1025.44 1025.39 1025.31 1025.19 1025.05 1024.88 1024.72
1020.97 1021.29 1021.58 1021.86 1022.13 1022.40 1022.64 1022.87 1023.04 1023.17 1023.24 1023.27 1023.25 1023.22 1023.21 1023.23 1023.31 1023.48 1023.72 1024.03 1024.40 1024.80 1025.19 1025.54 1025.83 1026.03 1026.14 1026.17 1026.13 1026.03 1025.90 1025.76 1025.63 1025.51 1025.40 1025.31 1025.22 1025.13 1025.03 1024.90 1024.77 1024.62 1024.48
1020.96 1021.29 1021.60 1021.91 1022.22 1022.51 1022.79 1023.03 1023.21 1023.33 1023.39 1023.39 1023.35 1023.30 1023.27 1023.29 1023.39 1023.57 1023.85 1024.20 1024.61 1025.05 1025.48 1025.86 1026.16 1026.36 1026.46 1026.45 1026.36 1026.19 1025.99 1025.76 1025.54 1025.34 1025.16 1025.01 1024.88 1024.77 1024.66 1024.55 1024.45 1024.35 1024.25
Thickness
5694 5694 5693 5693 5692 5691 5690 5688 5687 5686 5686 5687 5686 5684 5683 5681 5681 5680 5679 5679 5680 5681 5682 5684 5685 5687 5688 5688 5688 5688 5688 5687 5688 5685 5683 5683 5684 5684 5684 5685 5685 5685 5684
5687 5685 5684 5683 5682 5680 5680 5679 5678 5677 5677 5678 5677 5676 5674 5674 5672 5671 5671 5671 5672 5673 5675 5676 5678 5679 5680 5681 5682 5681 5681 5681 5682 5681 5677 5675 5674 5674 5675 5676 5677 5676 5676
5680 5677 5675 5673 5671 5669 5668 5669 5668 5668 5668 5669 5670 5669 5667 5666 5665 5664 5663 5661 5662 5664 5665 5668 5669 5671 5672 5673 5674 5674 5674 5674 5675 5677 5675 5671 5670 5668 5666 5666 5667 5666 5666
5673 5669 5666 5663 5661 5659 5658 5658 5658 5658 5658 5659 5660 5660 5659 5657 5655 5655 5654 5654 5654 5655 5656 5659 5660 5662 5664 5665 5667 5667 5668 5668 5668 5669 5670 5671 5670 5664 5658 5655 5655 5655 5655
5666 5661 5657 5653 5651 5649 5648 5648 5648 5647 5648 5648 5649 5649 5648 5647 5646 5646 5645 5646 5646 5646 5647 5649 5650 5652 5655 5657 5658 5659 5660 5662 5663 5663 5663 5662 5662 5662 5658 5650 5646 5644 5643
5657 5652 5648 5644 5641 5640 5639 5638 5637 5637 5637 5638 5638 5638 5637 5637 5637 5636 5636 5637 5638 5638 5638 5640 5641 5643 5646 5648 5649 5651 5652 5654 5655 5656 5656 5656 5655 5654 5653 5648 5642 5637 5633
5649 5643 5639 5636 5633 5631 5629 5628 5627 5627 5627 5627 5626 5627 5628 5628 5628 5628 5628 5629 5630 5630 5629 5631 5632 5633 5635 5638 5640 5643 5644 5646 5646 5648 5649 5649 5650 5650 5648 5643 5636 5630 5624
5643 5638 5633 5629 5625 5622 5620 5619 5618 5617 5617 5617 5616 5617 5618 5620 5619 5618 5618 5619 5620 5620 5620 5621 5622 5624 5626 5629 5631 5634 5635 5637 5638 5639 5639 5640 5641 5641 5641 5637 5631 5623 5617
5637 5632 5626 5622 5617 5614 5611 5610 5609 5609 5608 5608 5607 5608 5608 5608 5608 5608 5609 5610 5610 5611 5611 5612 5613 5615 5616 5619 5622 5623 5625 5627 5629 5630 5630 5631 5631 5631 5631 5630 5628 5623 5616
5631 5625 5620 5615 5610 5607 5604 5602 5600 5599 5599 5599 5599 5599 5598 5599 5599 5599 5599 5599 5600 5600 5601 5602 5604 5605 5607 5609 5612 5614 5614 5617 5618 5619 5620 5621 5622 5621 5621 5621 5620 5619 5616
5625 5619 5613 5607 5603 5600 5597 5594 5592 5591 5590 5590 5589 5589 5589 5589 5590 5589 5589 5589 5589 5589 5591 5592 5593 5595 5597 5599 5601 5603 5604 5606 5607 5608 5609 5610 5610 5611 5611 5611 5610 5609 5606
5620 5613 5607 5602 5598 5594 5590 5587 5585 5583 5581 5581 5580 5580 5580 5579 5579 5579 5578 5578 5578 5578 5579 5580 5582 5584 5585 5587 5590 5592 5593 5595 5596 5597 5599 5599 5600 5599 5599 5599 5599 5598 5596
5613 5606 5600 5595 5591 5586 5582 5579 5576 5574 5573 5572 5571 5570 5570 5569 5568 5567 5566 5566 5567 5567 5567 5568 5570 5572 5573 5575 5578 5580 5581 5582 5584 5585 5587 5588 5589 5588 5587 5587 5588 5587 5586
5606 5600 5593 5588 5582 5577 5573 5570 5567 5565 5563 5562 5561 5560 5558 5558 5557 5557 5556 5556 5556 5556 5556 5557 5559 5560 5562 5564 5566 5568 5569 5571 5572 5573 5575 5576 5577 5576 5576 5576 5576 5576 5574
5600 5593 5586 5580 5574 5569 5564 5561 5558 5556 5554 5553 5552 5550 5548 5548 5547 5547 5546 5546 5546 5546 5547 5547 5548 5549 5550 5551 5554 5557 5558 5559 5560 5562 5562 5562 5562 5562 5563 5565 5564 5564 5563
5594 5585 5578 5571 5566 5561 5557 5553 5550 5547 5545 5544 5542 5541 5540 5539 5538 5537 5537 5537 5537 5538 5538 5538 5539 5539 5538 5537 5540 5544 5547 5549 5550 5551 5551 5551 5551 5550 5550 5550 5550 5551 5552
5587 5578 5571 5564 5558 5553 5548 5544 5541 5539 5537 5535 5534 5533 5532 5531 5531 5530 5529 5529 5529 5530 5530 5529 5529 5528 5525 5526 5529 5533 5537 5539 5539 5540 5541 5542 5540 5541 5541 5540 5539 5539 5538
5581 5572 5564 5556 5549 5544 5539 5536 5533 5531 5529 5527 5526 5526 5525 5524 5523 5523 5521 5521 5522 5522 5522 5521 5519 5518 5516 5517 5520 5523 5527 5529 5529 5529 5530 5531 5530 5530 5531 5534 5533 5532 5530
5574 5565 5556 5549 5543 5537 5533 5529 5526 5524 5522 5521 5519 5518 5518 5518 5517 5516 5515 5515 5515 5515 5515 5514 5513 5512 5509 5509 5512 5515 5519 5520 5520 5521 5520 5521 5521 5518 5521 5525 5525 5524 5521
5565 5556 5549 5543 5536 5531 5527 5524 5520 5518 5516 5515 5513 5512 5512 5511 5510 5509 5509 5509 5509 5509 5509 5508 5506 5505 5503 5501 5504 5508 5514 5514 5514 5513 5512 5509 5510 5510 5513 5517 5518 5518 5516
5557 5550 5543 5536 5531 5526 5522 5519 5516 5513 5511 5510 5508 5506 5506 5505 5505 5504 5504 5504 5505 5504 5503 5502 5500 5499 5497 5496 5497 5500 5506 5508 5509 5510 5509 5504 5502 5504 5506 5508 5510 5508 5508
5552 5545 5538 5532 5526 5522 5519 5515 5512 5509 5507 5505 5504 5502 5501 5502 5501 5500 5500 5500 5500 5500 5499 5498 5497 5495 5493 5490 5490 5492 5495 5497 5502 5503 5502 5498 5496 5498 5499 5501 5500 5501 5503
5548 5541 5535 5528 5523 5519 5516 5512 5508 5506 5504 5502 5500 5498 5498 5497 5497 5498 5498 5498 5498 5499 5498 5497 5496 5494 5492 5488 5486 5487 5489 5491 5494 5495 5491 5491 5492 5493 5495 5494 5496 5498 5503
5545 5538 5532 5527 5522 5518 5515 5510 5508 5505 5503 5501 5498 5497 5496 5496 5495 5496 5496 5496 5496 5496 5496 5495 5494 5492 5491 5490 5489 5490 5490 5489 5491 5492 5489 5489 5490 5492 5491 5493 5496 5498 5498
5543 5537 5532 5526 5521 5517 5514 5511 5508 5505 5503 5500 5499 5498 5496 5495 5494 5492 5489 5491 5489 5489 5490 5492 5492 5491 5490 5482 5480 5483 5488 5488 5489 5489 5493 5495 5495 5495 5495 5496 5495 5496 5496
5542 5536 5531 5526 5521 5518 5514 5511 5508 5506 5503 5502 5501 5500 5499 5497 5496 5495 5491 5484 5484 5483 5482 5482 5484 5484 5481 5479 5479 5480 5481 5482 5484 5488 5494 5495 5495 5496 5496 5495 5495 5495 5494